Weather History for PAQT - February, 2013

Change the Weather History Date:

Thursday, February 7, 2013

  Actual Average (PAKU) Record (PAKU)
Temperature  
Mean Temperature -40 °F -  
Max Temperature -38 °F -12 °F 28 °F (1989)
Min Temperature -41 °F -20 °F -45 °F (1991)
Degree Days  
Heating Degree Days 104    
Moisture  
Dew Point -    
Average Humidity    
Maximum Humidity    
Minimum Humidity    
Precipitation  
Precipitation 0.00 in - - ()
Sea Level Pressure  
Sea Level Pressure 29.87 in    
Wind  
Wind Speed 7 mph (South)    
Max Wind Speed 12 mph    
Max Gust Speed -    
Visibility 7 miles    
Events Fog    
Averages and records for this station are not official NWS values.
T = Trace of Precipitation, MM = Missing Value Source: NWS Daily Summary

Daily Weather History Graph

Daily Weather History Graph

Search for Another Location

Airport or City:

Trip Planner

Search our weather history database for the weather conditions in past years. The results will help you decide how hot, cold, wet, or windy it might be!

Date:

Astronomy

Feb. 07, 2013 Rise Set
Actual Time 10:17 AM AKST 4:20 PM AKST
Civil Twilight 8:59 AM AKST 5:37 PM AKST
Nautical Twilight 7:44 AM AKST 6:53 PM AKST
Astronomical Twilight 6:33 AM AKST 8:05 PM AKST
Moon 9:35 AM AKST (2/7) 12:32 PM AKST (2/7)
Length of Visible Light 8h 38m
Length of Day
6h 03m
Waning Crescent, 8% of the Moon is Illuminated
Feb 7
Waning Crescent
Feb 9
New
Feb 17
First Quarter
Feb 25
Full
Mar 4
Last Quarter

Hourly Weather History & Observations

Time (AKST) Temp. Windchill Dew Point Humidity Pressure Visibility Wind Dir Wind Speed Gust Speed Precip Events Conditions
12:53 AM -40.0 °F -64.5 °F - N/A% 30.02 in 10.0 mi South 9.2 mph - N/A   Clear
1:53 AM -40.0 °F -67.2 °F - N/A% 30.01 in 10.0 mi SSW 11.5 mph - N/A   Clear
3:53 AM -40.0 °F -65.9 °F - N/A% 29.98 in 10.0 mi South 10.4 mph - N/A   Clear
4:07 AM -40.0 °F -65.9 °F - N/A% 29.97 in 10.0 mi South 10.4 mph - N/A   Partly Cloudy
4:42 AM -40.0 °F - - N/A% 29.96 in 10.0 mi North - - N/A   Mostly Cloudy
4:53 AM -38.9 °F - - N/A% 29.96 in 10.0 mi North - - N/A   Overcast
5:21 AM -38.2 °F - - N/A% 29.95 in 10.0 mi North - - N/A   Scattered Clouds
5:38 AM -38.2 °F - - N/A% 29.95 in 9.0 mi North - - N/A   Mostly Cloudy
5:53 AM -38.9 °F - - N/A% 29.95 in - North - - N/A   Overcast
6:32 AM -38.2 °F -63.7 °F - N/A% 29.94 in 10.0 mi South 10.4 mph - N/A   Mostly Cloudy
6:50 AM -38.2 °F -62.3 °F - N/A% 29.93 in 10.0 mi South 9.2 mph - N/A   Scattered Clouds
6:53 AM -38.9 °F -61.6 °F - N/A% 29.94 in 10.0 mi South 8.1 mph - N/A   Partly Cloudy
7:53 AM -40.0 °F -62.9 °F - N/A% 29.93 in 10.0 mi South 8.1 mph - N/A   Clear
8:53 AM -40.0 °F -67.2 °F - N/A% 29.91 in 10.0 mi South 11.5 mph - N/A   Clear
9:53 AM -40.0 °F -65.9 °F - N/A% 29.90 in 9.0 mi South 10.4 mph - N/A   Clear
10:53 AM -40.0 °F -65.9 °F - N/A% 29.89 in 9.0 mi South 10.4 mph - N/A   Partly Cloudy
11:03 AM -40.0 °F -62.9 °F - N/A% 29.88 in 3.0 mi South 8.1 mph - N/A   Mostly Cloudy
11:10 AM -40.0 °F -64.5 °F - N/A% 29.88 in 2.5 mi South 9.2 mph - N/A   Mostly Cloudy
11:17 AM -40.0 °F -64.5 °F - N/A% 29.88 in 6.0 mi South 9.2 mph - N/A   Haze
11:27 AM -40.0 °F -62.9 °F - N/A% 29.88 in 10.0 mi South 8.1 mph - N/A   Scattered Clouds
11:53 AM -40.0 °F -65.9 °F - N/A% 29.88 in 10.0 mi South 10.4 mph - N/A   Clear
12:53 PM -38.9 °F -63.2 °F - N/A% 29.87 in 10.0 mi South 9.2 mph - N/A   Clear
1:53 PM -40.0 °F -56.6 °F - N/A% 29.86 in 10.0 mi SW 4.6 mph - N/A   Clear
2:53 PM -40.0 °F -61.1 °F - N/A% 29.85 in 7.0 mi South 6.9 mph - N/A   Clear
3:53 PM -40.0 °F -61.1 °F - N/A% 29.84 in 10.0 mi SSW 6.9 mph - N/A   Clear
4:53 PM -41.1 °F -60.3 °F - N/A% 29.83 in 10.0 mi South 5.8 mph - N/A   Clear
5:53 PM -41.1 °F -64.2 °F - N/A% 29.83 in 10.0 mi South 8.1 mph - N/A   Clear
6:53 PM -41.1 °F -57.8 °F - N/A% 29.83 in 10.0 mi SSW 4.6 mph - N/A   Clear
7:53 PM -40.0 °F - - N/A% 29.81 in 6.0 mi Calm Calm - N/A   Haze
8:21 PM -41.8 °F - - N/A% 29.80 in 1.8 mi Calm Calm - N/A   Clear
8:38 PM -40.0 °F - - N/A% 29.80 in 3.0 mi Calm Calm - N/A   Scattered Clouds
8:53 PM -40.0 °F - - N/A% 29.81 in 8.0 mi Calm Calm - N/A   Mostly Cloudy
9:53 PM -41.1 °F - - N/A% 29.81 in 10.0 mi Calm Calm - N/A   Mostly Cloudy
10:28 PM -40.0 °F - - N/A% 29.80 in 9.0 mi Calm Calm - N/A   Scattered Clouds
10:41 PM -40.0 °F - - N/A% 29.80 in 1.8 mi Calm Calm - N/A   Scattered Clouds
10:49 PM -40.0 °F - - N/A% 29.80 in 0.5 mi Calm Calm - N/A Fog Light Freezing Fog
10:53 PM -40.0 °F - - N/A% 29.81 in 0.5 mi Calm Calm - N/A Fog Light Freezing Fog
11:09 PM -40.0 °F - - N/A% 29.80 in 1.0 mi Calm Calm - N/A   Mostly Cloudy
11:20 PM -40.0 °F - - N/A% 29.80 in 0.8 mi Calm Calm - N/A   Mostly Cloudy
11:27 PM -41.8 °F - - N/A% 29.80 in 1.0 mi Calm Calm - N/A   Mostly Cloudy
11:42 PM -38.2 °F - - N/A% 29.80 in 1.5 mi Calm Calm - N/A   Mostly Cloudy
11:47 PM -38.2 °F -51.5 °F - N/A% 29.80 in 1.2 mi North 3.5 mph - N/A   Scattered Clouds
11:53 PM -40.0 °F -53.5 °F - N/A% 29.81 in 0.8 mi North 3.5 mph - N/A   Mist